Hoquiam, WA

2:48 PM PST on December 17, 2017 (GMT -0800)
Bowerman

Weather History for KHQM - August, 2013

Change the Weather History Date:

Wednesday, August 14, 2013

  Actual Average Record
Temperature  
Mean Temperature 62 °F 61 °F  
Max Temperature 70 °F 68 °F 97 °F (2010)
Min Temperature 53 °F 54 °F 45 °F (1955)
Degree Days  
Heating Degree Days 3 4  
Month to date heating degree days 66 56  
Since 1 June heating degree days 388 466  
Cooling Degree Days 0 0  
Month to date cooling degree days 0 0  
Year to date cooling degree days 11 9  
Since 1 June cooling degree days 8 8  
Growing Degree Days 12 (Base 50)    
Moisture  
Dew Point 57 °F    
Average Humidity 85    
Maximum Humidity 100    
Minimum Humidity 70    
Precipitation  
Precipitation T in 0.04 in 0.66 in (1978)
Month to date precipitation T 0.41  
Year to date precipitation 32.56 36.71  
Sea Level Pressure  
Sea Level Pressure 29.96 in    
Wind  
Wind Speed 5 mph (ENE)    
Max Wind Speed 14 mph    
Max Gust Speed 17 mph    
Visibility 6 miles    
Events Rain    
T = Trace of Precipitation, MM = Missing Value Source: NWS Daily Summary

Daily Weather History Graph

Daily Weather History Graph

Search for Another Location

Airport or City:

Trip Planner

Search our weather history database for the weather conditions in past years. The results will help you decide how hot, cold, wet, or windy it might be!

Date:

Astronomy

Aug. 14, 2013 Rise Set
Actual Time 6:12 AM PDT 8:27 PM PDT
Civil Twilight 5:38 AM PDT 9:00 PM PDT
Nautical Twilight 4:56 AM PDT 9:42 PM PDT
Astronomical Twilight 4:09 AM PDT 10:29 PM PDT
Moon 2:51 PM PDT (8/14) No Moon Set
Length of Visible Light 15h 22m
Length of Day
14h 15m
First Quarter, 54% of the Moon is Illuminated
Aug 14
First Quarter
Aug 20
Full
Aug 28
Last Quarter
Sep 5
New
Sep 12
First Quarter

Hourly Weather History & Observations

Time (PDT) Temp. Dew Point Humidity Pressure Visibility Wind Dir Wind Speed Gust Speed Precip Events Conditions
12:53 AM 57.0 °F 54.0 °F 89% 29.96 in 10.0 mi Calm Calm - N/A   Clear
1:53 AM 55.0 °F 53.1 °F 93% 29.96 in 6.0 mi Calm Calm - N/A   Clear
2:53 AM 55.9 °F 53.1 °F 90% 29.96 in 9.0 mi Calm Calm - N/A   Clear
3:53 AM 54.0 °F 52.0 °F 93% 29.96 in 8.0 mi ENE 4.6 mph - N/A   Clear
4:53 AM 55.9 °F 53.1 °F 90% 29.96 in 10.0 mi NE 5.8 mph - N/A   Clear
5:53 AM 55.9 °F 53.1 °F 90% 29.95 in 10.0 mi NE 4.6 mph - N/A   Clear
6:53 AM 55.9 °F 54.0 °F 93% 29.96 in 7.0 mi Calm Calm - N/A   Clear
7:53 AM 57.0 °F 54.0 °F 89% 29.96 in 8.0 mi ENE 4.6 mph - N/A   Mostly Cloudy
8:53 AM 59.0 °F 55.0 °F 87% 29.96 in 7.0 mi NE 3.5 mph - N/A   Mostly Cloudy
9:53 AM 63.0 °F 55.9 °F 78% 29.96 in 10.0 mi ENE 4.6 mph - N/A   Overcast
10:53 AM 66.0 °F 55.9 °F 70% 29.96 in 10.0 mi Calm Calm - 0.00 in Rain Light Rain
11:53 AM 66.9 °F 55.9 °F 68% 29.96 in 10.0 mi ESE 3.5 mph - 0.00 in   Mostly Cloudy
12:53 PM 69.1 °F 59.0 °F 70% 29.95 in 10.0 mi South 4.6 mph - N/A   Overcast
1:53 PM 66.9 °F 57.0 °F 70% 29.97 in 10.0 mi WSW 9.2 mph - 0.00 in Rain Light Rain
2:21 PM 64.4 °F 57.2 °F 77% 29.98 in 1.8 mi SW 13.8 mph - 0.00 in Rain Heavy Rain
2:32 PM 62.6 °F 55.4 °F 77% 29.98 in 3.0 mi SSW 12.7 mph - N/A Rain Rain
2:53 PM 62.1 °F 55.0 °F 78% 29.98 in 10.0 mi SW 5.8 mph - N/A Rain Light Rain
3:53 PM 62.1 °F 55.9 °F 80% 29.99 in 6.0 mi ESE 5.8 mph - N/A Rain Light Rain
4:53 PM 61.0 °F 57.0 °F 87% 29.98 in 3.0 mi East 5.8 mph - N/A Rain Light Rain
5:09 PM 60.8 °F 57.2 °F 88% 29.97 in 1.8 mi Calm Calm - N/A Rain Heavy Rain
5:18 PM 60.8 °F 57.2 °F 88% 29.96 in 3.0 mi Variable 3.5 mph - N/A Rain Rain
5:53 PM 61.0 °F 57.9 °F 90% 29.98 in 10.0 mi ENE 3.5 mph - N/A   Overcast
6:01 PM 60.8 °F 57.2 °F 88% 29.96 in 10.0 mi ENE 6.9 mph - N/A   Overcast
6:28 PM 60.8 °F 57.2 °F 88% 29.96 in 5.0 mi ENE 4.6 mph - N/A Rain Light Rain
6:53 PM 61.0 °F 59.0 °F 93% 29.96 in 7.0 mi ENE 4.6 mph - N/A Rain Light Rain
7:53 PM 61.0 °F 59.0 °F 93% 29.96 in 7.0 mi East 9.2 mph - N/A   Overcast
8:53 PM 61.0 °F 59.0 °F 93% 29.96 in 9.0 mi ENE 6.9 mph - N/A   Overcast
9:06 PM 60.8 °F 59.0 °F 94% 29.95 in 2.5 mi ENE 5.8 mph - N/A Rain Light Rain
9:12 PM 60.8 °F 60.8 °F 100% 29.95 in 2.5 mi ENE 5.8 mph - N/A Rain Light Rain
9:25 PM 60.8 °F 60.8 °F 100% 29.95 in 4.0 mi NE 3.5 mph - N/A   Overcast
9:33 PM 60.8 °F 60.8 °F 100% 29.96 in 4.0 mi ENE 3.5 mph - N/A   Overcast
9:46 PM 60.8 °F 59.0 °F 94% 29.96 in 2.0 mi East 4.6 mph - N/A Rain Rain
9:53 PM 60.1 °F 59.0 °F 96% 29.97 in 2.0 mi East 6.9 mph - N/A Rain Rain
9:55 PM 60.8 °F 59.0 °F 94% 29.96 in 1.8 mi East 8.1 mph - N/A Rain Rain
10:15 PM 60.8 °F 59.0 °F 94% 29.96 in 2.5 mi East 8.1 mph - N/A Rain Light Rain
10:22 PM 60.8 °F 60.8 °F 100% 29.96 in 4.0 mi East 9.2 mph - N/A Rain Light Rain
10:50 PM 60.8 °F 60.8 °F 100% 29.96 in 3.0 mi ENE 4.6 mph - N/A Rain Light Rain
10:53 PM 61.0 °F 60.1 °F 97% 29.97 in 3.0 mi ENE 4.6 mph - N/A Rain Light Rain
11:41 PM 60.8 °F 60.8 °F 100% 29.95 in 3.0 mi ENE 5.8 mph - N/A Rain Light Rain
11:53 PM 61.0 °F 60.1 °F 97% 29.97 in 2.5 mi ENE 5.8 mph - N/A Rain Light Rain